This demonstration page uses our WeatherBlox Daily Observations layout. Learn more.

Left ArrowRight Arrow

34.02893, -84.19858

Hourly Observations for August 13, 2022

Temp ( °F °C ) Dew Point ( °F °C ) Humidity (%) Winds ( mph kmh ) Pressure ( in mb ) Visibility ( mi km ) Precip ( " mm )
12:53 am 00:53 Clear 73 22.8 68 20 84 84 Calm 29.99 1016 10 16 0.00 0.00
1:53 am 01:53 Clear 72 22.2 69 20.6 91 91 Calm 29.98 1015 10 16 0.00 0.00
2:53 am 02:53 Partly Cloudy 73 22.8 70 21.1 90 90 Calm 29.99 1016 10 16 0.00 0.00
3:53 am 03:53 Mostly Cloudy 72 22.2 69 20.6 91 91 E 5 7 29.99 1016 10 16 0.00 0.00
4:26 am 04:26 Mostly Cloudy 72 22.2 69 20.6 91 91 undefined N/A 30.02 1016 10 16 0.00 0.00
4:38 am 04:38 Cloudy 72 22.2 69 20.6 91 91 VRB 5 7 30.02 1016 10 16 0.00 0.00
4:53 am 04:53 Cloudy 72 22.2 69 20.6 91 91 undefined N/A 30.00 1016 10 16 0.00 0.00
5:42 am 05:42 Cloudy 72 22.2 68 20 87 87 VRB 6 9 30.04 1017 10 16 0.00 0.00
5:53 am 05:53 Cloudy 72 22.2 68 20 87 87 Calm 30.01 1016 10 16 0.00 0.00
6:21 am 06:21 Mostly Cloudy 71 21.7 68 20 90 90 undefined N/A 30.04 1017 10 16 0.00 0.00
6:28 am 06:28 Mostly Cloudy 71 21.7 68 20 90 90 Calm 30.04 1017 10 16 0.00 0.00
6:41 am 06:41 Mostly Cloudy 71 21.7 68 20 90 90 VRB 3 6 30.05 1018 10 16 0.00 0.00
6:53 am 06:53 Mostly Cloudy 71 21.7 67 19.4 87 87 ENE 5 7 30.03 1017 10 16 0.00 0.00
7:53 am 07:53 Partly Cloudy 71 21.7 67 19.4 87 87 ENE 5 7 30.04 1017 10 16 0.00 0.00
8:22 am 08:22 Mostly Cloudy 71 21.7 67 19.4 87 87 Calm 30.07 1018 10 16 0.00 0.00
8:53 am 08:53 Mostly Cloudy 72 22.2 67 19.4 84 84 Calm 30.07 1018 10 16 0.00 0.00
9:09 am 09:09 Mostly Cloudy 73 22.8 67 19.4 81 81 VRB 3 6 30.09 1019 10 16 0.00 0.00
9:19 am 09:19 Partly Cloudy 73 22.8 67 19.4 81 81 undefined N/A 30.09 1019 10 16 0.00 0.00
9:53 am 09:53 Mostly Cloudy 74 23.3 66 18.9 76 76 VRB 3 6 30.09 1019 10 16 0.00 0.00
10:53 am 10:53 Mostly Cloudy 76 24.4 66 18.9 71 71 VRB 5 7 30.09 1019 10 16 0.00 0.00
11:44 am 11:44 Mostly Cloudy 77 25 67 19.4 71 71 VRB 6 9 30.10 1019 10 16 0.00 0.00
11:53 am 11:53 Cloudy 77 25 67 19.4 71 71 VRB 6 9 30.10 1019 10 16 0.00 0.00
12:53 pm 12:53 Partly Cloudy 79 26.1 66 18.9 65 65 VRB 6 9 30.08 1019 10 16 0.00 0.00
1:53 pm 13:53 Partly Cloudy 80 26.7 67 19.4 64 64 Calm 30.07 1018 10 16 0.00 0.00
2:53 pm 14:53 Mostly Cloudy 80 26.7 65 18.3 60 60 VRB 3 6 30.05 1018 10 16 0.00 0.00
3:53 pm 15:53 Sunny 81 27.2 65 18.3 58 58 Calm 30.04 1017 10 16 0.00 0.00
4:53 pm 16:53 Sunny 81 27.2 64 17.8 57 57 SSE 3 6 30.02 1017 10 16 0.00 0.00
5:53 pm 17:53 Sunny 82 27.8 63 17.2 53 53 VRB 3 6 30.01 1016 10 16 0.00 0.00
6:53 pm 18:53 Sunny 81 27.2 65 18.3 58 58 SSE 5 7 30.00 1016 10 16 0.00 0.00
7:53 pm 19:53 Sunny 79 26.1 65 18.3 62 62 Calm 30.01 1016 10 16 0.00 0.00
8:53 pm 20:53 Clear 74 23.3 65 18.3 74 74 ESE 3 6 30.03 1017 9 14 0.00 0.00
9:53 pm 21:53 Clear 72 22.2 66 18.9 82 82 Calm 30.04 1017 10 16 0.00 0.00
10:53 pm 22:53 Clear 70 21.1 66 18.9 87 87 Calm 30.04 1017 10 16 0.00 0.00
11:53 pm 23:53 Clear 69 20.6 66 18.9 90 90 Calm 30.05 1018 10 16 0.00 0.00

Powered by AerisWeather